Regional Weather Roundup
Issued by NWS

Home | Current Version | Previous Version | Graphics & Text | Print | Product List | Glossary Off
Versions: 1 2 3 4 5 6 7 8 9 10 11 12 13 14 15 16 17 18 19 20 21 22 23 24 25 26 27 28

000
ASUS45 KCYS 210910
RWRWY

WYOMING REGIONAL WEATHER ROUNDUP
NATIONAL WEATHER SERVICE CHEYENNE WY
300 AM MDT MON AUG 21 2017

NOTE:  "FAIR" INDICATES FEW OR NO CLOUDS BELOW 12,000 FEET
WITH NO SIGNIFICANT WEATHER AND/OR OBSTRUCTIONS TO VISIBILITY.

WYZ001-211000-
YELLOWSTONE NATIONAL PARK

CITY           SKY/WX    TMP DP  RH WIND       PRES   REMARKS
LK YELLOWSTONE   N/A     41  36  82 CALM      30.33R
W YELLOWSTONE  NOT AVBL

$$
WYZ002>013-054>058-071-098>099-211000-
NORTHERN WYOMING

CITY           SKY/WX    TMP DP  RH WIND       PRES   REMARKS
JACKSON        FAIR      42  27  55 CALM      30.25R
CODY           FAIR      57  35  43 S5        30.16R
GREYBULL       FAIR      64  33  31 W9        30.05R
WORLAND        FAIR      57  38  48 SW6       30.07S
SHERIDAN       FAIR      53  42  66 NW5       30.08R
BUFFALO        FAIR      59  35  40 W9        30.12S
GILLETTE       FAIR      59  44  57 NW5       30.05S
HULETT         FAIR      59  50  72 SW7       30.05S
NEWCASTLE      FAIR      68  55  64 SE10      30.02S

$$
WYZ014>020-022>026-101>103-211000-
CENTRAL WYOMING

CITY           SKY/WX    TMP DP  RH WIND       PRES   REMARKS
BIG PINEY      FAIR      45  30  55 NE6       30.27S
PINEDALE       FAIR      39  32  75 NW6       30.28R WCI  35
DUBOIS         FAIR      46  23  39 NW13      30.26S
LANDER           N/A    N/A N/A N/A MISG      30.15R
RIVERTON       FAIR      59  36  42 W3        30.15S
CASPER         FAIR      53  40  61 SW3       30.14S
DOUGLAS        FAIR      61  41  47 CALM      30.09R

$$
WYZ021-027>030-104>119-211000-
SOUTHERN WYOMING

CITY           SKY/WX    TMP DP  RH WIND       PRES   REMARKS
EVANSTON       FAIR      58  34  40 S8        30.27S
KEMMERER         N/A     52  32  46 NW10      30.28S
FORT BRIDGER   FAIR      60  31  33 W6        30.29R
ROCK SPRINGS   FAIR      62  35  36 E3        30.24R
RAWLINS        FAIR      60  35  39 CALM      30.22S
SARATOGA       PTSUNNY   50  37  62 SE5       30.26S
LARAMIE        FAIR      51  37  58 S5        30.26S
CHEYENNE       FAIR      56  43  61 W10       30.16S
TORRINGTON     FAIR      63  63 100 SE6       30.01F
PINE BLUFFS    FAIR      55  55 100 W5        30.11S

$$




USA.gov is the U.S. government's official web portal to all federal, state and local government web resources and services.